Regional Weather Roundup
Issued by NWS

Home | Current Version | Previous Version | Graphics & Text | Print | Product List | Glossary On
Versions: 1 2 3 4 5 6 7 8 9 10 11 12 13 14 15 16 17 18 19 20 21 22 23 24 25 26 27 28 29 30 31 32 33 34 35 36 37 38 39 40 41 42 43 44 45 46 47 48 49 50
000
ASUS43 KIND 071209
RWRIN

WEATHER ROUNDUP FOR INDIANA
NATIONAL WEATHER SERVICE INDIANAPOLIS IN
800 AM EDT TUE JUL 07 2015

NOTE: "FAIR" INDICATES FEW OR NO CLOUDS BELOW 12,000 FEET WITH NO
SIGNIFICANT WEATHER AND/OR OBSTRUCTIONS TO VISIBILITY.

* - STATION DOES NOT REPORT WEATHER SUCH AS PRECIPITATION OR FOG.

+ - STATION NOT QUALITY CONTROLLED BY THE NATIONAL WEATHER SERVICE.
    USE DATA WITH CAUTION...ESPECIALLY DEWPOINT AND RELATIVE
    HUMIDITY OBSERVATIONS.

INZ001>003-010>013-019-020-071300-
NORTHWEST INDIANA

CITY           SKY/WX    TMP DP  RH WIND       PRES   REMARKS
GARY /AIRPORT/ LGT RAIN N/A N/A N/A N17G33    29.93R
KNOX *+        CLOUDY    70  70 100 SW3       29.87S
LA PORTE +     RAIN      71  71 100 NW15      29.89R
                                      6HR PCP:  0.07;

MICHIGAN CITY+ RAIN      59  59 100 N10G17    29.91R
MONTICELLO +   RAIN      70  70 100 W5        29.89R
6HR MIN TEMP:  70; 6HR MAX TEMP:  76; 6HR PCP:  0.15;

RENSSELAER +   RAIN      72  72 100 SW3       29.89S
VALPARAISO     LGT RAIN  62  60  93 NW12G22   29.90R FOG
6HR MIN TEMP:  62; 6HR MAX TEMP:  75; 6HR PCP:  0.10;


$$

LMZ046-743>745-071300-
SOUTHERN LAKE MICHIGAN

STATION/POSITION TIME  TEMP    WIND        PRES    WAVE
                       AIR SEA DIR/SP/G            HT
                 (UTC) (F)     (DEG/KT/KT) (MB)    (FT)
BURNS HARBOR     1200   61     360/ 17/ 22 1013.2R
MICHIGAN CITY    1200   60     350/ 21/ 23   N/A
5NW MICH CITY    1200   61 67   10/ 19/ 23   N/A     3

$$

INZ004-005-014>016-021>024-071300-
NORTH CENTRAL INDIANA

CITY           SKY/WX    TMP DP  RH WIND       PRES   REMARKS
ELKHART        LGT RAIN  72  72 100 SW3       29.88R
GOSHEN         RAIN      72  70  93 SW10      29.88R FOG
6HR MIN TEMP:  72; 6HR MAX TEMP:  77; 6HR PCP:  0.34;

LOGANSPORT +   LGT RAIN  73  70  88 SW8       29.89S
PERU/GRISSOM   CLOUDY    76  72  89 SW13      29.88S
6HR MIN TEMP:  75; 6HR MAX TEMP:  76;

ROCHESTER +    CLOUDY    72  72 100 W6        29.90R
SOUTH BEND     LGT RAIN  72  71  97 SW8       29.88R
6HR MIN TEMP:  72; 6HR MAX TEMP:  79; 6HR PCP:  0.10;

WARSAW +       RAIN      70  70 100 CALM      29.90R

$$

INZ006>009-017-018-025>027-071300-
NORTHEAST INDIANA

CITY           SKY/WX    TMP DP  RH WIND       PRES   REMARKS
ANGOLA *+        N/A     75  73  94 W13       29.89R
AUBURN +       CLOUDY    77  70  78 SW7       29.90R
FORT WAYNE     CLOUDY    76  72  87 SW10      29.91R
6HR MIN TEMP:  74; 6HR MAX TEMP:  76;

HUNTINGTON +   CLOUDY    76  72  89 SW8G16    29.90R
6HR MIN TEMP:  74; 6HR MAX TEMP:  76;


$$

INZ028-029-035-036-043>045-051>053-071300-
WEST CENTRAL INDIANA

CITY           SKY/WX    TMP DP  RH WIND       PRES   REMARKS
CRAWFORDSVL +  CLOUDY    74  70  89 SW7       29.91S
6HR MIN TEMP:  73; 6HR MAX TEMP:  74;

GREENCASTLE +  CLOUDY    73  68  83 S5        29.93S
LAFAYETTE      LGT RAIN  71  69  93 NW8       29.89R FOG
6HR MIN TEMP:  71; 6HR MAX TEMP:  76; 6HR PCP:  0.06;

TERRE HAUTE    CLOUDY    76  73  91 S7        29.91S
6HR MIN TEMP:  76; 6HR MAX TEMP:  76;


$$

INZ030>032-037>040-046>048-054>057-064-065-071300-
CENTRAL INDIANA

CITY           SKY/WX    TMP DP  RH WIND       PRES   REMARKS
CP ATTERBURY + CLOUDY    75  70  83 S8        29.95F HAZE
COLUMBUS       CLOUDY    75  72  88 S9        29.96S
FRANKFORT +    CLOUDY   N/A N/A N/A S9        29.92S HAZE
GREENWOOD *+   CLOUDY    77  70  78 S9        29.95S
INDIANAPOLIS   CLOUDY    77  71  82 SW12      29.92R
6HR MIN TEMP:  75; 6HR MAX TEMP:  77;

-EAGLE CREEK   CLOUDY    77  72  84 S8        29.92S
6HR MIN TEMP:  76; 6HR MAX TEMP:  77;

KOKOMO *+      CLOUDY    75  70  83 SW14      29.90S
6HR MIN TEMP:  75; 6HR MAX TEMP:  77;

MARION +       CLOUDY    75  72  90 SW9       29.92S FOG
MT COMFORT *+  CLOUDY    75 N/A N/A S6        29.94S
SHELBYVILLE    CLOUDY    76  72  87 S12       29.94S
6HR MIN TEMP:  75; 6HR MAX TEMP:  76;

ZIONSVILLE +   CLOUDY    77  71  81 SW9       29.93S
6HR MIN TEMP:  76; 6HR MAX TEMP:  77;


$$

INZ033-034-041-042-049-050-058-059-071300-
EAST CENTRAL INDIANA

CITY           SKY/WX    TMP DP  RH WIND       PRES   REMARKS
MUNCIE         PTSUNNY   76  72  87 SW9G18    29.93R
6HR MIN TEMP:  75; 6HR MAX TEMP:  77;


$$

INZ060-061-067>069-081>083-085>088-071300-
SOUTHWEST INDIANA

CITY           SKY/WX    TMP DP  RH WIND       PRES   REMARKS
EVANSVILLE     CLOUDY    74  70  87 S14       29.96S
6HR MIN TEMP:  74; 6HR MAX TEMP:  78; 6HR PCP:  0.09;

HUNTINGBURG *+ CLOUDY    73  70  88 SW21G26   29.97R
6HR MIN TEMP:  73; 6HR MAX TEMP:  75; 6HR PCP:  0.73;

WASHINGTON +   CLOUDY    77  71  83 S9        29.93S
6HR MIN TEMP:  75; 6HR MAX TEMP:  77;


$$

INZ062-063-066-070>080-084-089>092-071300-
SOUTH CENTRAL AND SOUTHEAST INDIANA

CITY           SKY/WX    TMP DP  RH WIND       PRES   REMARKS
BLOOMINGTON    CLOUDY    76  72  87 SW7       29.95R
6HR MIN TEMP:  76; 6HR MAX TEMP:  77;

MADISON *+     CLOUDY    73  70  88 S7        30.01S
NORTH VERNON + CLOUDY    75  75 100 S6        29.98S
SEYMOUR +      CLOUDY    77  73  88 S8        29.96S

$$



USA.gov is the U.S. government's official web portal to all federal, state and local government web resources and services.